Terug naar catalogus

FENGYUN 1C DEB

ActiefPO
NORAD 31781·DEBRIS·🇨🇳 China

Gelanceerd May 10, 1999 vanaf Taiyuan Satellite Launch Center

Loading…

Volgende Passages (komende 24 uur)

TLE

VerouderendSource: Space-Track

Epoch: Sep 5, 2026, 07:52 UTC

1 31781U 99025CGG 26248.32835677  .00002805  00000-0  12055-2 0  9998
2 31781  99.5016  81.5954 0190944 249.6837 108.3725 14.16309236721180

Volg FENGYUN 1C DEB in realtime met AllMySat

Download on the App Store